Regional Weather Roundup
Issued by NWS Albany, NY

Home | Current Version | Previous Version | Text Only | Print | Product List | Glossary On
Versions: 1 2 3 4 5 6 7 8 9 10 11 12 13 14 15 16 17 18 19 20 21 22 23 24 25 26 27 28 29 30 31 32 33 34 35 36 37 38 39 40 41 42 43 44 45 46 47 48 49 50
796
ASUS41 KALY 282310
RWRALY

NEW YORK STATE HOURLY WEATHER ROUNDUP
NATIONAL WEATHER SERVICE ALBANY NY
700 PM EDT SAT MAY 28 2016

NOTE: "FAIR" INDICATES FEW OR NO CLOUDS BELOW 12,000 FEET WITH NO
SIGNIFICANT WEATHER AND/OR NO OBSTRUCTIONS TO VISIBILITY.

NYZ032-033-038>043-046>054-057>066-NYZ062>081-082-084-290000-
EAST


CITY           SKY/WX    TMP DP  RH WIND       PRES   REMARKS
ALBANY         PTSUNNY   91  60  35 NW3       30.04S HX  90
GLENS FALLS    MOSUNNY   86  65  49 CALM      30.04S
POUGHKEEPSIE   MOSUNNY   89  65  44 SW9       30.04S HX  91
NEWBURGH       MOSUNNY   82  70  65 SW7       30.09R
MONTGOMERY     CLOUDY    81  68  64 SW10      30.07S
WHITE PLAINS   PTSUNNY   78  66  66 S5        30.09F THUNDER
ISLIP          PTSUNNY   74  57  55 SW15G23   30.11S
NEW YORK CITY  CLOUDY    81  69  67 SE14      30.07R
CENTRAL PARK   CLOUDY    83  65  54 CALM      30.11R
$$

NYZ005>009-017-018-044>046-055-056-290000-
CENTRAL


CITY           SKY/WX    TMP DP  RH WIND       PRES   REMARKS
FULTON         SUNNY     90  63  40 CALM      30.05F HX  91
SYRACUSE       CLOUDY    87  63  44 N9        30.04S
ROME           SUNNY     88  62  41 CALM      30.06S
ELMIRA         CLOUDY    86  63  45 W8        30.06R
BINGHAMTON     SUNNY     84  61  45 NE5       30.11F
MONTICELLO     CLOUDY    75  64  69 CALM      30.15R
$$

NYZ026>034-041>043-087-290000-
NORTH


CITY           SKY/WX    TMP DP  RH WIND       PRES   REMARKS
WATERTOWN      MOSUNNY   83  62  49 W5        30.04F
FORT DRUM      NOT AVBL
MASSENA        MOSUNNY   86  67  52 CALM      30.04S
SARANAC LAKE   PTSUNNY   80  62  54 NE7       30.11S
PLATTSBURGH    SUNNY     83  59  44 NE7       30.07S
$$

NYZ001>004-010>016-019>021-085-290000-
WEST


CITY           SKY/WX    TMP DP  RH WIND       PRES   REMARKS
NIAGARA FALLS  CLOUDY    89  61  38 SW10      30.04S
BUFFALO        LGT RAIN  80  62  54 SW18      30.07R
DUNKIRK        PTSUNNY   77  65  66 SE6       30.09R
JAMESTOWN      CLOUDY    73  63  68 N7        30.14R
WELLSVILLE     CLOUDY    80  67  64 NE5       30.16R
ROCHESTER      PTSUNNY   86  67  52 SE7       30.05S
PENN YAN       MOSUNNY   82  63  52 CALM      30.09R
$$

             KEY
       WCI = WIND CHILL INDEX
       VSB = VISIBILITY
       HX  = HEAT INDEX
$$




USA.gov is the U.S. government's official web portal to all federal, state and local government web resources and services.